MEASAT 3D

Last updated on Tue Sep 22 2026 00:03:15 GMT+0000 (Coordinated Universal Time)

1 52904U 22067B 26264.50718410 -.00000245 00000+0 00000+0 0 9993 2 52904 0.0481 331.9708 0001783 262.9903 39.5199 1.00270558 15613
UTC large
Height (km)
Speed (km/s)
/
Latitude / Longitude
Inclination (degrees)
Orbital Period (minutes)
Azimuth
Elevation
Range (km)
Doppler Factor

Next 0 passes for location: London (51.5072 / 0.1276)

No passes found over London.
MEASAT 3D